Powrót do katalogu

STARLINK-35440

AktywnyŁącznośćVLEO
NORAD 66345·PAYLOAD·🇺🇸 United States

Wystrzelony Nov 6, 2025 z Cape Canaveral Space Force Station

Loading…

Następne Przeloty (najbliższe 24 godziny)

TLE

ŚwieżeSource: CelesTrak SupGP

Epoka: Sep 14, 2026, 20:55 UTC

1 66345C 25253AC  26257.87201389  .00034653  00000+0  12552-2 0  2575
2 66345  42.9997 224.2069 0001084 256.1903 197.1834 15.27559363    10

Śledź STARLINK-35440 w czasie rzeczywistym z AllMySat

Download on the App Store